Time,TemperatureF,DewpointF,PressureIn,WindDirection,WindDirectionDegrees,WindSpeedMPH,WindSpeedGustMPH,Humidity,HourlyPrecipIn,Conditions,Clouds,dailyrainin,SoftwareType,DateUTC
2013-02-14 00:00:00,70.9,68.0,29.96,SSW,202,4.0,4.9,89,0.00,,,0.00,,2013-02-14 05:00:00,
2013-02-14 00:05:00,70.8,68.0,29.96,SSW,202,4.7,6.7,89,0.00,,,0.00,,2013-02-14 05:05:00,
2013-02-14 00:10:00,70.7,68.0,29.96,SSW,202,3.1,5.8,89,0.00,,,0.00,,2013-02-14 05:10:00,
2013-02-14 00:15:00,70.7,69.0,29.96,SSW,202,4.0,8.3,90,0.00,,,0.00,,2013-02-14 05:15:00,
2013-02-14 00:20:00,70.5,69.0,29.96,SW,225,4.9,6.0,90,0.00,,,0.00,,2013-02-14 05:20:00,
2013-02-14 00:25:00,70.4,69.0,29.95,SW,225,4.9,7.8,91,0.00,,,0.00,,2013-02-14 05:25:00,
2013-02-14 00:30:00,70.5,69.0,29.95,SW,225,5.6,7.8,91,0.00,,,0.00,,2013-02-14 05:30:00,
2013-02-14 00:35:00,70.6,69.0,29.95,SSW,202,2.9,8.7,91,0.00,,,0.00,,2013-02-14 05:35:00,
2013-02-14 00:40:00,70.5,69.0,29.95,SSW,202,3.6,7.4,92,0.00,,,0.00,,2013-02-14 05:40:00,
2013-02-14 00:45:00,70.5,69.0,29.95,SW,225,3.1,7.4,92,0.00,,,0.00,,2013-02-14 05:45:00,
2013-02-14 00:50:00,70.6,69.0,29.95,SSW,202,2.5,3.4,92,0.00,,,0.00,,2013-02-14 05:50:00,
2013-02-14 00:55:00,70.5,69.0,29.95,SSW,202,5.4,8.3,92,0.00,,,0.00,,2013-02-14 05:55:00,
2013-02-14 01:00:00,70.6,69.0,29.95,SSW,202,4.3,4.3,92,0.00,,,0.00,,2013-02-14 06:00:00,
2013-02-14 01:05:00,70.7,69.0,29.94,South,180,2.7,5.8,92,0.00,,,0.00,,2013-02-14 06:05:00,
2013-02-14 01:10:00,70.7,69.0,29.94,SW,225,2.9,3.4,92,0.00,,,0.00,,2013-02-14 06:10:00,
2013-02-14 01:15:00,70.5,69.0,29.94,SSW,202,2.5,4.5,92,0.00,,,0.00,,2013-02-14 06:15:00,
2013-02-14 01:20:00,70.6,70.0,29.94,SW,225,2.2,3.4,93,0.00,,,0.00,,2013-02-14 06:20:00,
2013-02-14 01:25:00,70.4,69.0,29.94,SW,225,4.5,5.1,93,0.00,,,0.00,,2013-02-14 06:25:00,
2013-02-14 01:30:00,70.3,69.0,29.94,SW,225,3.1,3.4,93,0.00,,,0.00,,2013-02-14 06:30:00,
2013-02-14 01:35:00,70.4,69.0,29.94,SW,225,2.5,3.4,93,0.00,,,0.00,,2013-02-14 06:35:00,
2013-02-14 01:40:00,70.3,69.0,29.94,SSW,202,3.4,3.4,93,0.00,,,0.00,,2013-02-14 06:40:00,
2013-02-14 01:45:00,70.2,69.0,29.94,SW,225,1.6,4.3,93,0.00,,,0.00,,2013-02-14 06:45:00,
2013-02-14 01:50:00,70.3,69.0,29.94,SW,225,1.6,2.2,93,0.00,,,0.00,,2013-02-14 06:50:00,
2013-02-14 01:55:00,70.4,69.0,29.94,WSW,247,0.0,2.2,94,0.00,,,0.00,,2013-02-14 06:55:00,
2013-02-14 02:00:00,70.3,69.0,29.94,SW,225,0.0,0.7,94,0.00,,,0.00,,2013-02-14 07:00:00,
2013-02-14 02:05:00,70.3,70.0,29.93,WSW,247,0.0,0.9,94,0.00,,,0.00,,2013-02-14 07:05:00,
2013-02-14 02:10:00,70.4,70.0,29.93,WSW,247,0.0,0.0,94,0.00,,,0.00,,2013-02-14 07:10:00,
2013-02-14 02:15:00,70.4,70.0,29.93,SW,225,0.0,0.0,94,0.00,,,0.00,,2013-02-14 07:15:00,
2013-02-14 02:20:00,70.4,70.0,29.93,SW,225,0.0,0.0,94,0.00,,,0.00,,2013-02-14 07:20:00,
2013-02-14 02:25:00,70.3,70.0,29.93,WSW,247,0.0,0.0,94,0.00,,,0.00,,2013-02-14 07:25:00,
2013-02-14 02:30:00,70.4,69.0,29.93,WSW,247,0.0,0.0,93,0.00,,,0.00,,2013-02-14 07:30:00,
2013-02-14 02:35:00,70.4,69.0,29.93,WSW,247,0.0,0.0,94,0.00,,,0.00,,2013-02-14 07:35:00,
2013-02-14 02:40:00,70.4,70.0,29.93,WSW,247,0.0,0.0,93,0.00,,,0.00,,2013-02-14 07:40:00,
2013-02-14 02:45:00,70.4,69.0,29.93,WSW,247,0.0,0.0,93,0.00,,,0.00,,2013-02-14 07:45:00,
2013-02-14 02:50:00,70.4,69.0,29.93,NNW,337,6.7,6.9,93,0.00,,,0.00,,2013-02-14 07:50:00,
2013-02-14 02:55:00,70.3,70.0,29.93,NNW,337,4.3,11.6,94,0.00,,,0.00,,2013-02-14 07:55:00,
2013-02-14 03:00:00,70.2,69.0,29.94,NW,315,4.7,4.7,93,0.00,,,0.00,,2013-02-14 08:00:00,
2013-02-14 03:05:00,70.2,69.0,29.94,North,0,5.1,6.3,93,0.00,,,0.00,,2013-02-14 08:05:00,
2013-02-14 03:10:00,70.1,69.0,29.93,North,0,3.4,3.6,93,0.00,,,0.00,,2013-02-14 08:10:00,
2013-02-14 03:15:00,70.1,69.0,29.93,NW,315,0.0,5.4,93,0.00,,,0.00,,2013-02-14 08:15:00,
2013-02-14 03:20:00,70.2,69.0,29.93,NW,315,2.9,4.7,94,0.00,,,0.00,,2013-02-14 08:20:00,
2013-02-14 03:25:00,70.1,69.0,29.93,WNW,292,2.2,5.1,93,0.00,,,0.00,,2013-02-14 08:25:00,
2013-02-14 03:30:00,70.0,69.0,29.93,North,0,3.6,5.8,93,0.00,,,0.00,,2013-02-14 08:30:00,
2013-02-14 03:35:00,70.0,69.0,29.93,NNW,337,4.7,8.3,93,0.00,,,0.00,,2013-02-14 08:35:00,
2013-02-14 03:40:00,70.0,69.0,29.93,NNW,337,4.5,4.9,93,0.00,,,0.00,,2013-02-14 08:40:00,
2013-02-14 03:45:00,70.0,69.0,29.93,NW,315,2.2,4.9,93,0.00,,,0.00,,2013-02-14 08:45:00,
2013-02-14 03:50:00,70.1,69.0,29.93,NW,315,0.9,2.7,93,0.00,,,0.00,,2013-02-14 08:50:00,
2013-02-14 03:55:00,70.1,69.0,29.93,NNW,337,3.4,4.5,93,0.00,,,0.00,,2013-02-14 08:55:00,
2013-02-14 04:00:00,70.0,69.0,29.94,NNW,337,4.3,5.6,92,0.00,,,0.00,,2013-02-14 09:00:00,
2013-02-14 04:05:00,69.9,68.0,29.94,NW,315,4.7,7.8,92,0.00,,,0.00,,2013-02-14 09:05:00,
2013-02-14 04:10:00,69.9,69.0,29.94,NNW,337,4.9,6.0,92,0.00,,,0.00,,2013-02-14 09:10:00,
2013-02-14 04:15:00,69.8,68.0,29.94,NW,315,6.3,9.6,92,0.00,,,0.00,,2013-02-14 09:15:00,
2013-02-14 04:20:00,69.6,68.0,29.94,North,0,4.9,6.0,91,0.00,,,0.00,,2013-02-14 09:20:00,
2013-02-14 04:25:00,69.5,68.0,29.94,North,0,6.5,8.5,92,0.00,,,0.00,,2013-02-14 09:25:00,
2013-02-14 04:30:00,69.4,68.0,29.94,North,0,6.0,7.4,91,0.00,,,0.00,,2013-02-14 09:30:00,
2013-02-14 04:35:00,69.2,68.0,29.94,North,0,7.4,9.4,92,0.00,,,0.00,,2013-02-14 09:35:00,
2013-02-14 04:40:00,69.0,67.0,29.94,North,0,5.1,10.1,91,0.00,,,0.00,,2013-02-14 09:40:00,
2013-02-14 04:45:00,68.8,67.0,29.95,North,0,9.8,13.2,90,0.00,,,0.00,,2013-02-14 09:45:00,
2013-02-14 04:50:00,68.4,66.0,29.95,NW,315,9.6,13.9,89,0.00,,,0.00,,2013-02-14 09:50:00,
2013-02-14 04:55:00,68.2,65.0,29.94,North,0,8.7,13.9,88,0.00,,,0.00,,2013-02-14 09:55:00,
2013-02-14 05:00:00,67.9,65.0,29.93,North,0,9.8,12.3,88,0.00,,,0.00,,2013-02-14 10:00:00,
2013-02-14 05:05:00,67.8,65.0,29.94,NNE,22,8.1,14.1,88,0.00,,,0.00,,2013-02-14 10:05:00,
2013-02-14 05:10:00,67.7,65.0,29.94,North,0,9.6,11.0,88,0.00,,,0.00,,2013-02-14 10:10:00,
2013-02-14 05:15:00,67.6,65.0,29.94,NNE,22,8.5,12.3,89,0.00,,,0.00,,2013-02-14 10:15:00,
2013-02-14 05:20:00,67.6,65.0,29.94,North,0,8.1,9.6,88,0.00,,,0.00,,2013-02-14 10:20:00,
2013-02-14 05:25:00,67.6,65.0,29.94,North,0,7.4,11.9,89,0.00,,,0.00,,2013-02-14 10:25:00,
2013-02-14 05:30:00,67.5,65.0,29.94,NNE,22,8.1,9.2,89,0.00,,,0.00,,2013-02-14 10:30:00,
2013-02-14 05:35:00,67.5,65.0,29.94,NNE,22,5.6,9.2,89,0.00,,,0.00,,2013-02-14 10:35:00,
2013-02-14 05:40:00,67.4,65.0,29.94,NNE,22,6.3,6.3,89,0.00,,,0.00,,2013-02-14 10:40:00,
2013-02-14 05:45:00,67.4,65.0,29.94,NNE,22,4.3,10.5,89,0.00,,,0.00,,2013-02-14 10:45:00,
2013-02-14 05:50:00,67.4,65.0,29.94,North,0,7.2,9.4,89,0.00,,,0.00,,2013-02-14 10:50:00,
2013-02-14 05:55:00,67.3,65.0,29.94,NNE,22,4.7,10.3,89,0.00,,,0.00,,2013-02-14 10:55:00,
2013-02-14 06:00:00,67.4,65.0,29.95,NNE,22,4.5,4.5,89,0.00,,,0.00,,2013-02-14 11:00:00,
2013-02-14 06:05:00,67.4,65.0,29.95,NNE,22,4.3,6.7,89,0.00,,,0.00,,2013-02-14 11:05:00,
2013-02-14 06:10:00,67.3,65.0,29.95,North,0,3.1,4.0,89,0.00,,,0.00,,2013-02-14 11:10:00,
2013-02-14 06:15:00,67.3,65.0,29.95,NNW,337,6.5,8.1,89,0.00,,,0.00,,2013-02-14 11:15:00,
2013-02-14 06:20:00,67.2,65.0,29.95,North,0,4.0,4.9,88,0.00,,,0.00,,2013-02-14 11:20:00,
2013-02-14 06:25:00,67.2,64.0,29.95,North,0,3.4,6.7,88,0.00,,,0.00,,2013-02-14 11:25:00,
2013-02-14 06:30:00,67.2,65.0,29.95,North,0,3.4,4.5,88,0.00,,,0.00,,2013-02-14 11:30:00,
2013-02-14 06:35:00,67.2,64.0,29.95,North,0,3.1,6.9,88,0.00,,,0.00,,2013-02-14 11:35:00,
2013-02-14 06:40:00,67.1,64.0,29.95,NNE,22,5.1,6.3,88,0.00,,,0.00,,2013-02-14 11:40:00,
2013-02-14 06:45:00,67.1,64.0,29.95,NNE,22,4.3,8.5,88,0.00,,,0.00,,2013-02-14 11:45:00,
2013-02-14 06:50:00,67.1,64.0,29.96,NNE,22,4.9,5.1,88,0.00,,,0.00,,2013-02-14 11:50:00,
2013-02-14 06:55:00,67.1,64.0,29.96,North,0,3.1,6.7,88,0.00,,,0.00,,2013-02-14 11:55:00,
2013-02-14 07:00:00,67.1,64.0,29.96,NNE,22,6.9,6.9,88,0.00,,,0.00,,2013-02-14 12:00:00,
2013-02-14 07:05:00,67.1,64.0,29.96,NE,45,2.2,6.9,88,0.00,,,0.00,,2013-02-14 12:05:00,
2013-02-14 07:10:00,67.1,64.0,29.96,NE,45,4.0,4.7,88,0.00,,,0.00,,2013-02-14 12:10:00,
2013-02-14 07:15:00,67.1,64.0,29.96,NNE,22,2.5,5.1,88,0.00,,,0.00,,2013-02-14 12:15:00,
2013-02-14 07:20:00,67.1,64.0,29.97,NNE,22,1.8,3.1,87,0.00,,,0.00,,2013-02-14 12:20:00,
2013-02-14 07:25:00,67.2,64.0,29.97,NNE,22,3.1,3.8,87,0.00,,,0.00,,2013-02-14 12:25:00,
2013-02-14 07:30:00,67.3,64.0,29.97,NE,45,3.6,4.3,87,0.00,,,0.00,,2013-02-14 12:30:00,
2013-02-14 07:35:00,67.4,64.0,29.97,NNE,22,3.4,4.7,87,0.00,,,0.00,,2013-02-14 12:35:00,
2013-02-14 07:40:00,67.5,64.0,29.97,NNE,22,4.3,4.5,86,0.00,,,0.00,,2013-02-14 12:40:00,
2013-02-14 07:45:00,67.5,64.0,29.97,NNE,22,8.7,8.9,86,0.00,,,0.00,,2013-02-14 12:45:00,
2013-02-14 07:50:00,67.6,64.0,29.97,NNW,337,4.5,6.0,86,0.00,,,0.00,,2013-02-14 12:50:00,
2013-02-14 07:55:00,67.7,64.0,29.97,North,0,7.4,10.3,86,0.00,,,0.00,,2013-02-14 12:55:00,
2013-02-14 08:00:00,67.6,64.0,29.98,NNW,337,7.8,9.6,86,0.00,,,0.00,,2013-02-14 13:00:00,
2013-02-14 08:05:00,67.5,64.0,29.98,North,0,10.7,12.8,86,0.00,,,0.00,,2013-02-14 13:05:00,
2013-02-14 08:10:00,67.4,64.0,29.97,NNE,22,9.2,10.1,86,0.00,,,0.00,,2013-02-14 13:10:00,
2013-02-14 08:15:00,67.3,64.0,29.98,North,0,7.8,11.4,86,0.00,,,0.00,,2013-02-14 13:15:00,
2013-02-14 08:20:00,67.3,64.0,29.98,NNE,22,6.5,8.5,87,0.00,,,0.00,,2013-02-14 13:20:00,
2013-02-14 08:25:00,67.3,64.0,29.98,NW,315,9.6,11.6,87,0.00,,,0.00,,2013-02-14 13:25:00,
2013-02-14 08:30:00,67.1,64.0,29.98,NNE,22,9.4,9.8,87,0.00,,,0.00,,2013-02-14 13:30:00,
2013-02-14 08:35:00,67.1,64.0,29.98,NNE,22,8.9,12.1,88,0.00,,,0.00,,2013-02-14 13:35:00,
2013-02-14 08:40:00,67.2,64.0,29.99,NNW,337,6.0,7.2,88,0.00,,,0.00,,2013-02-14 13:40:00,
2013-02-14 08:45:00,67.2,64.0,29.99,NNW,337,8.9,9.2,88,0.00,,,0.00,,2013-02-14 13:45:00,
2013-02-14 08:50:00,67.2,65.0,29.99,NNE,22,7.4,8.9,88,0.00,,,0.00,,2013-02-14 13:50:00,
2013-02-14 08:55:00,67.2,65.0,29.99,North,0,5.8,8.9,88,0.00,,,0.00,,2013-02-14 13:55:00,
2013-02-14 09:01:00,67.2,65.0,30.00,NNW,337,9.4,9.6,88,0.00,,,0.00,,2013-02-14 14:01:00,
2013-02-14 09:06:00,67.0,64.0,29.99,North,0,10.5,13.9,89,0.00,,,0.00,,2013-02-14 14:06:00,
2013-02-14 09:11:00,67.0,65.0,30.00,WNW,292,5.4,5.4,89,0.00,,,0.00,,2013-02-14 14:11:00,
2013-02-14 09:16:00,66.9,65.0,30.00,NNW,337,4.0,8.1,90,0.00,,,0.00,,2013-02-14 14:16:00,
2013-02-14 09:21:00,66.9,65.0,30.00,NNE,22,4.3,5.6,89,0.00,,,0.00,,2013-02-14 14:21:00,
2013-02-14 09:26:00,66.8,65.0,30.00,NNE,22,5.1,9.2,90,0.00,,,0.00,,2013-02-14 14:26:00,
2013-02-14 09:31:00,66.8,65.0,30.00,NNE,22,8.7,9.2,91,0.00,,,0.00,,2013-02-14 14:31:00,
2013-02-14 09:36:00,66.8,65.0,29.99,NNE,22,6.3,9.4,92,0.00,,,0.00,,2013-02-14 14:36:00,
2013-02-14 09:41:00,66.8,65.0,30.00,ESE,112,2.9,3.8,92,0.00,,,0.00,,2013-02-14 14:41:00,
2013-02-14 09:46:00,66.9,66.0,30.00,East,90,3.1,4.9,92,0.00,,,0.00,,2013-02-14 14:46:00,
2013-02-14 09:51:00,66.9,66.0,30.00,NE,45,0.0,1.1,92,0.00,,,0.00,,2013-02-14 14:51:00,
2013-02-14 09:56:00,67.2,66.0,30.00,NE,45,0.0,2.5,92,0.00,,,0.00,,2013-02-14 14:56:00,
2013-02-14 10:01:00,67.3,66.0,30.00,NE,45,2.0,4.3,92,0.00,,,0.00,,2013-02-14 15:01:00,
2013-02-14 10:06:00,67.5,66.0,30.00,NNE,22,2.9,4.3,92,0.00,,,0.00,,2013-02-14 15:06:00,
2013-02-14 10:11:00,67.4,66.0,30.00,NE,45,0.0,1.3,92,0.00,,,0.00,,2013-02-14 15:11:00,
2013-02-14 10:16:00,67.5,66.0,30.00,ENE,67,3.4,4.0,93,0.00,,,0.00,,2013-02-14 15:16:00,
2013-02-14 10:21:00,67.5,66.0,30.00,SE,135,2.2,4.5,93,0.00,,,0.00,,2013-02-14 15:21:00,
2013-02-14 10:26:00,67.6,66.0,30.00,ENE,67,1.3,4.5,93,0.00,,,0.00,,2013-02-14 15:26:00,
2013-02-14 10:31:00,67.7,67.0,30.00,ENE,67,0.0,0.0,93,0.00,,,0.00,,2013-02-14 15:31:00,
2013-02-14 10:36:00,67.7,67.0,30.00,NE,45,1.1,3.6,93,0.00,,,0.00,,2013-02-14 15:36:00,
2013-02-14 10:41:00,67.7,67.0,30.00,NE,45,3.8,4.3,93,0.00,,,0.00,,2013-02-14 15:41:00,
2013-02-14 10:46:00,67.8,67.0,29.99,East,90,7.6,7.6,94,0.00,,,0.00,,2013-02-14 15:46:00,
2013-02-14 10:51:00,68.0,67.0,29.99,ENE,67,2.7,5.4,94,0.00,,,0.00,,2013-02-14 15:51:00,
2013-02-14 10:56:00,68.1,67.0,29.99,ENE,67,3.6,6.7,94,0.00,,,0.00,,2013-02-14 15:56:00,
2013-02-14 11:01:00,68.1,67.0,29.99,East,90,0.0,0.0,94,0.00,,,0.00,,2013-02-14 16:01:00,
2013-02-14 11:06:00,68.2,67.0,29.99,NNE,22,0.0,3.6,94,0.00,,,0.00,,2013-02-14 16:06:00,
2013-02-14 11:11:00,68.2,67.0,29.99,NNW,337,4.5,4.5,94,0.00,,,0.00,,2013-02-14 16:11:00,
2013-02-14 11:16:00,68.3,68.0,29.99,NNE,22,1.3,4.5,94,0.00,,,0.00,,2013-02-14 16:16:00,
2013-02-14 11:21:00,68.4,68.0,29.98,NE,45,2.5,2.5,94,0.00,,,0.00,,2013-02-14 16:21:00,
2013-02-14 11:26:00,68.5,68.0,29.98,NE,45,3.6,3.6,94,0.00,,,0.00,,2013-02-14 16:26:00,
2013-02-14 11:31:00,68.6,68.0,29.99,NNE,22,4.5,5.4,94,0.00,,,0.00,,2013-02-14 16:31:00,
2013-02-14 11:36:00,68.8,68.0,29.98,NE,45,1.1,5.6,94,0.00,,,0.00,,2013-02-14 16:36:00,
2013-02-14 11:41:00,68.8,68.0,29.99,NNW,337,7.2,7.2,94,0.00,,,0.00,,2013-02-14 16:41:00,
2013-02-14 11:46:00,68.8,68.0,29.99,NW,315,2.2,8.7,94,0.00,,,0.00,,2013-02-14 16:46:00,
2013-02-14 11:51:00,68.7,68.0,29.98,NE,45,1.6,3.6,94,0.00,,,0.00,,2013-02-14 16:51:00,
2013-02-14 11:56:00,68.7,68.0,29.98,ESE,112,2.7,4.5,94,0.00,,,0.00,,2013-02-14 16:56:00,
2013-02-14 12:01:00,68.9,68.0,29.97,ENE,67,4.3,6.5,94,0.00,,,0.00,,2013-02-14 17:01:00,
2013-02-14 12:06:00,69.2,68.0,29.97,East,90,5.8,8.3,94,0.00,,,0.00,,2013-02-14 17:06:00,
2013-02-14 12:11:00,69.4,68.0,29.96,East,90,4.3,4.7,93,0.00,,,0.00,,2013-02-14 17:11:00,
2013-02-14 12:16:00,69.7,69.0,29.96,ENE,67,1.8,6.3,93,0.00,,,0.00,,2013-02-14 17:16:00,
2013-02-14 12:21:00,70.0,69.0,29.96,East,90,2.2,5.4,93,0.00,,,0.00,,2013-02-14 17:21:00,
2013-02-14 12:26:00,70.2,69.0,29.96,ENE,67,4.7,5.6,92,0.00,,,0.00,,2013-02-14 17:26:00,
2013-02-14 12:31:00,70.4,69.0,29.95,ESE,112,3.1,4.0,92,0.00,,,0.00,,2013-02-14 17:31:00,
2013-02-14 12:36:00,70.5,69.0,29.95,ENE,67,3.4,4.7,91,0.00,,,0.00,,2013-02-14 17:36:00,
2013-02-14 12:41:00,70.7,69.0,29.95,ESE,112,5.8,5.8,91,0.00,,,0.00,,2013-02-14 17:41:00,
2013-02-14 12:46:00,70.8,69.0,29.95,ESE,112,5.1,5.8,91,0.00,,,0.00,,2013-02-14 17:46:00,
2013-02-14 12:51:00,71.1,69.0,29.94,ESE,112,0.0,3.1,91,0.00,,,0.00,,2013-02-14 17:51:00,
2013-02-14 12:56:00,71.7,70.0,29.94,ENE,67,3.8,6.0,91,0.00,,,0.00,,2013-02-14 17:56:00,
2013-02-14 13:01:00,72.2,70.0,29.94,ENE,67,4.0,5.8,90,0.00,,,0.00,,2013-02-14 18:01:00,
2013-02-14 13:06:00,72.5,70.0,29.94,ENE,67,3.1,6.5,89,0.00,,,0.00,,2013-02-14 18:06:00,
2013-02-14 13:11:00,72.8,70.0,29.93,East,90,3.8,3.8,89,0.00,,,0.00,,2013-02-14 18:11:00,
2013-02-14 13:16:00,73.1,70.0,29.93,East,90,0.0,4.0,88,0.00,,,0.00,,2013-02-14 18:16:00,
2013-02-14 13:21:00,73.6,70.0,29.93,SE,135,3.1,4.7,86,0.00,,,0.00,,2013-02-14 18:21:00,
2013-02-14 13:26:00,73.6,70.0,29.92,East,90,6.5,11.0,85,0.00,,,0.00,,2013-02-14 18:26:00,
2013-02-14 13:31:00,73.9,70.0,29.92,East,90,3.8,4.7,85,0.00,,,0.00,,2013-02-14 18:31:00,
2013-02-14 13:36:00,74.1,70.0,29.92,East,90,2.2,6.0,84,0.00,,,0.00,,2013-02-14 18:36:00,
2013-02-14 13:41:00,74.5,70.0,29.91,East,90,4.0,4.7,84,0.00,,,0.00,,2013-02-14 18:41:00,
2013-02-14 13:46:00,74.9,70.0,29.91,NE,45,1.6,8.7,82,0.00,,,0.00,,2013-02-14 18:46:00,
2013-02-14 13:51:00,75.2,70.0,29.91,East,90,4.0,4.0,82,0.00,,,0.00,,2013-02-14 18:51:00,
2013-02-14 13:56:00,75.2,70.0,29.91,ENE,67,2.7,6.3,81,0.00,,,0.00,,2013-02-14 18:56:00,
2013-02-14 14:01:00,75.5,70.0,29.90,SSE,157,0.0,2.0,81,0.00,,,0.00,,2013-02-14 19:01:00,
2013-02-14 14:06:00,75.9,70.0,29.90,East,90,6.3,7.4,80,0.00,,,0.00,,2013-02-14 19:06:00,
2013-02-14 14:11:00,76.1,70.0,29.90,East,90,6.3,6.5,79,0.00,,,0.00,,2013-02-14 19:11:00,
2013-02-14 14:16:00,76.1,70.0,29.90,NNE,22,6.9,8.1,78,0.00,,,0.00,,2013-02-14 19:16:00,
2013-02-14 14:21:00,75.9,69.0,29.89,East,90,4.9,5.6,78,0.00,,,0.00,,2013-02-14 19:21:00,
2013-02-14 14:26:00,76.1,70.0,29.89,ESE,112,5.4,6.3,78,0.00,,,0.00,,2013-02-14 19:26:00,
2013-02-14 14:31:00,76.1,70.0,29.89,NE,45,2.9,3.4,78,0.00,,,0.00,,2013-02-14 19:31:00,
2013-02-14 14:36:00,76.2,70.0,29.88,ENE,67,3.6,8.3,78,0.00,,,0.00,,2013-02-14 19:36:00,
2013-02-14 14:41:00,76.2,70.0,29.89,ENE,67,11.4,12.5,78,0.00,,,0.00,,2013-02-14 19:41:00,
2013-02-14 14:46:00,75.8,69.0,29.89,East,90,5.4,12.8,77,0.00,,,0.00,,2013-02-14 19:46:00,
2013-02-14 14:51:00,75.3,69.0,29.90,ENE,67,8.3,12.1,78,0.00,,,0.00,,2013-02-14 19:51:00,
2013-02-14 14:56:00,74.7,69.0,29.89,ESE,112,6.5,12.1,79,0.00,,,0.00,,2013-02-14 19:56:00,
2013-02-14 15:01:00,74.3,69.0,29.89,East,90,6.5,7.6,80,0.00,,,0.00,,2013-02-14 20:01:00,
2013-02-14 15:06:00,74.1,69.0,29.88,ENE,67,9.4,11.6,81,0.00,,,0.00,,2013-02-14 20:06:00,
2013-02-14 15:11:00,73.9,69.0,29.89,East,90,6.9,10.3,81,0.00,,,0.00,,2013-02-14 20:11:00,
2013-02-14 15:16:00,73.6,69.0,29.88,East,90,10.7,16.3,82,0.00,,,0.00,,2013-02-14 20:16:00,
2013-02-14 15:21:00,73.3,68.0,29.88,NE,45,10.1,15.2,82,0.00,,,0.00,,2013-02-14 20:21:00,
2013-02-14 15:26:00,73.1,68.0,29.88,East,90,8.3,16.6,83,0.00,,,0.00,,2013-02-14 20:26:00,
2013-02-14 15:31:00,72.9,68.0,29.88,ESE,112,5.8,7.8,84,0.00,,,0.00,,2013-02-14 20:31:00,
2013-02-14 15:36:00,72.5,68.0,29.87,NE,45,15.0,18.1,84,0.00,,,0.00,,2013-02-14 20:36:00,
2013-02-14 15:41:00,72.3,68.0,29.87,ENE,67,10.5,10.7,85,0.00,,,0.00,,2013-02-14 20:41:00,
2013-02-14 15:46:00,72.1,68.0,29.87,NE,45,7.2,15.4,85,0.00,,,0.00,,2013-02-14 20:46:00,
2013-02-14 15:51:00,71.8,68.0,29.87,NE,45,11.2,14.5,86,0.00,,,0.00,,2013-02-14 20:51:00,
2013-02-14 15:56:00,71.7,68.0,29.88,NNE,22,5.8,14.5,87,0.00,,,0.00,,2013-02-14 20:56:00,
2013-02-14 16:01:00,71.4,69.0,29.88,NNE,22,9.8,13.9,88,0.00,,,0.00,,2013-02-14 21:01:00,
2013-02-14 16:06:00,71.2,69.0,29.88,ENE,67,6.0,13.9,88,0.00,,,0.00,,2013-02-14 21:06:00,
2013-02-14 16:11:00,71.0,68.0,29.88,NNW,337,6.5,7.2,89,0.00,,,0.00,,2013-02-14 21:11:00,
2013-02-14 16:16:00,70.8,69.0,29.89,WNW,292,4.0,10.7,90,0.00,,,0.00,,2013-02-14 21:16:00,
2013-02-14 16:21:00,70.4,69.0,29.90,SSW,202,2.9,4.9,92,0.00,,,0.00,,2013-02-14 21:21:00,
2013-02-14 16:26:00,70.4,69.0,29.91,NNW,337,7.6,12.5,92,0.00,,,0.00,,2013-02-14 21:26:00,
2013-02-14 16:31:00,70.0,68.0,29.90,NNE,22,8.7,8.7,90,0.00,,,0.00,,2013-02-14 21:31:00,
2013-02-14 16:36:00,69.5,67.0,29.92,WNW,292,6.3,8.7,90,0.00,,,0.00,,2013-02-14 21:36:00,
2013-02-14 16:41:00,69.3,67.0,29.91,NW,315,7.2,10.7,90,0.00,,,0.00,,2013-02-14 21:41:00,
2013-02-14 16:46:00,69.1,67.0,29.91,North,0,3.1,10.7,91,0.00,,,0.00,,2013-02-14 21:46:00,
2013-02-14 16:51:00,69.1,67.0,29.89,NE,45,7.6,8.9,91,0.00,,,0.00,,2013-02-14 21:51:00,
2013-02-14 16:56:00,68.9,67.0,29.90,NNE,22,6.0,11.0,92,0.00,,,0.00,,2013-02-14 21:56:00,
2013-02-14 17:01:00,68.9,67.0,29.89,NNE,22,6.7,10.3,92,0.00,,,0.00,,2013-02-14 22:01:00,
2013-02-14 17:06:00,68.8,68.0,29.90,North,0,5.4,12.5,92,0.00,,,0.00,,2013-02-14 22:06:00,
2013-02-14 17:11:00,68.8,68.0,29.89,North,0,6.3,8.3,93,0.00,,,0.00,,2013-02-14 22:11:00,
2013-02-14 17:16:00,68.8,68.0,29.90,NW,315,6.0,12.5,93,0.00,,,0.00,,2013-02-14 22:16:00,
2013-02-14 17:21:00,68.8,68.0,29.90,North,0,9.4,11.4,93,0.00,,,0.00,,2013-02-14 22:21:00,
2013-02-14 17:26:00,68.9,68.0,29.90,North,0,13.9,16.1,93,0.00,,,0.00,,2013-02-14 22:26:00,
2013-02-14 17:31:00,68.8,68.0,29.91,NNE,22,10.3,10.7,93,0.00,,,0.00,,2013-02-14 22:31:00,
2013-02-14 17:36:00,68.5,67.0,29.92,NNE,22,18.1,23.7,92,0.00,,,0.00,,2013-02-14 22:36:00,
2013-02-14 17:41:00,68.1,66.0,29.92,North,0,16.1,17.4,91,0.00,,,0.00,,2013-02-14 22:41:00,
2013-02-14 17:46:00,67.8,66.0,29.92,NNE,22,15.4,24.4,91,0.00,,,0.00,,2013-02-14 22:46:00,
2013-02-14 17:51:00,67.6,66.0,29.92,NNE,22,13.6,17.9,92,0.00,,,0.00,,2013-02-14 22:51:00,
2013-02-14 17:56:00,67.5,66.0,29.92,NNE,22,14.3,17.9,92,0.00,,,0.00,,2013-02-14 22:56:00,
2013-02-14 18:01:00,67.5,66.0,29.92,NNE,22,12.8,13.4,92,0.00,,,0.00,,2013-02-14 23:01:00,
2013-02-14 18:06:00,67.4,66.0,29.92,North,0,18.6,19.9,92,0.00,,,0.00,,2013-02-14 23:06:00,
2013-02-14 18:11:00,67.2,66.0,29.92,NNE,22,15.7,18.6,93,0.00,,,0.00,,2013-02-14 23:11:00,
2013-02-14 18:16:00,66.9,66.0,29.95,WNW,292,15.0,23.7,92,0.00,,,0.00,,2013-02-14 23:16:00,
2013-02-14 18:21:00,66.4,65.0,29.96,NW,315,21.3,21.3,92,0.00,,,0.00,,2013-02-14 23:21:00,
2013-02-14 18:26:00,66.1,65.0,29.97,NW,315,16.3,27.1,92,0.00,,,0.00,,2013-02-14 23:26:00,